Theta_e
330 331 331 331 333 333 333 332 333 334 333 334 334 334 335 336 336 335 337 339 338 337 335 335 334 334 333 333 334 334 334 333 332 331 329 329 326 327 330 329 330 331 331 332 329 323 321 318 320 328 330 330 330 329 330 331 331 331 331 332 332 331 331
330 330 331 332 332 333 332 332 332 332 332 333 334 334 333 334 336 336 337 337 338 337 334 334 335 334 333 331 331 331 332 333 335 335 332 329 330 330 328 327 330 330 329 331 331 329 323 321 319 321 323 327 328 329 330 330 331 332 332 331 331 331 331
330 330 330 330 330 331 331 332 332 331 331 332 333 333 333 333 334 335 336 336 336 335 335 336 333 332 333 333 333 332 333 333 335 333 332 332 332 333 331 329 327 328 328 327 327 326 326 326 320 319 321 321 321 325 329 329 329 330 331 332 332 331 331
330 329 328 329 330 329 328 328 330 331 331 332 333 333 332 333 334 334 335 335 335 336 336 334 333 333 334 335 335 334 334 335 332 333 333 334 334 334 332 330 329 328 326 325 326 326 326 323 322 321 321 322 322 322 325 328 329 330 331 331 331 331 331
329 328 327 328 329 329 329 329 330 330 330 331 332 332 332 333 333 334 335 334 334 334 335 335 334 334 336 336 335 334 334 336 336 333 333 333 333 333 332 331 331 331 332 330 330 329 327 326 325 322 320 322 322 323 325 327 329 329 330 330 330 331 330
329 330 330 330 331 331 332 331 329 328 328 327 330 329 331 332 333 332 333 333 333 334 335 333 333 334 335 336 335 334 334 333 333 333 333 334 333 332 332 333 333 332 332 333 333 331 330 330 327 322 322 323 320 321 324 325 325 328 329 329 329 330 330
329 329 330 330 332 332 333 334 330 329 328 329 330 330 331 331 331 332 333 335 334 334 333 333 333 333 333 333 334 333 334 334 334 333 334 335 335 335 335 332 333 332 333 334 333 332 330 328 326 324 322 321 323 320 323 324 325 323 325 328 330 330 329
330 330 330 331 331 331 332 331 329 329 327 328 330 332 331 331 330 331 332 333 334 333 333 333 333 332 332 332 332 332 333 335 333 331 333 335 334 333 332 331 331 331 330 331 332 332 330 329 329 328 323 319 318 320 320 322 323 323 324 327 329 328 329
330 331 331 331 331 332 331 331 331 329 329 329 332 332 331 330 330 330 331 331 331 333 333 332 333 332 332 331 332 332 331 333 334 333 334 335 334 335 334 333 333 331 333 332 332 332 331 331 331 330 327 324 319 315 319 319 320 321 326 324 326 328 328
329 329 330 331 331 332 331 331 332 330 330 330 330 330 330 329 329 329 330 331 330 331 331 332 332 331 332 331 331 331 331 332 334 334 335 331 333 333 333 332 334 334 334 334 332 333 333 333 332 331 329 326 325 320 316 316 318 319 323 326 322 325 328
327 329 330 330 331 330 331 331 332 331 330 331 330 330 330 329 328 330 329 330 331 330 331 332 332 332 332 331 332 332 333 334 334 334 334 333 332 332 331 331 332 333 333 333 333 334 333 333 331 331 330 330 329 324 322 318 320 323 323 326 327 324 327
328 329 329 330 330 329 329 331 330 330 330 331 330 330 330 329 328 329 330 329 330 330 331 331 331 331 330 331 331 331 333 333 333 333 333 331 331 330 330 332 333 333 335 334 334 334 334 333 332 331 331 331 330 329 327 324 321 325 327 323 325 328 325
328 328 328 328 328 328 329 330 330 331 331 331 331 331 330 330 329 329 330 330 329 330 330 330 330 329 329 330 331 332 333 332 332 332 331 331 330 331 331 332 333 333 334 334 334 333 332 332 333 331 331 330 329 330 329 326 322 322 325 325 326 324 325
326 327 327 328 327 328 329 330 330 332 331 330 331 332 331 330 330 330 330 330 328 328 329 329 330 330 329 329 330 333 333 332 331 332 331 329 331 332 331 332 334 334 335 334 333 333 332 332 332 332 332 331 329 330 328 326 324 322 322 321 324 323 323
323 325 327 328 328 328 328 330 330 330 330 331 331 331 331 332 331 331 330 330 329 329 329 330 330 329 328 329 330 333 332 330 331 333 333 331 331 332 335 334 333 334 334 333 333 331 331 331 331 330 330 330 329 329 330 326 325 323 321 319 318 318 320
320 322 323 327 327 328 329 330 330 329 330 331 332 331 331 331 331 331 330 329 330 329 329 329 330 330 328 327 329 331 333 332 332 333 333 333 333 334 334 334 334 334 333 333 333 333 333 331 331 330 331 330 330 329 328 328 326 324 323 319 320 317 318
315 317 318 322 325 327 329 329 330 330 330 331 331 331 330 330 330 330 330 328 328 328 328 328 329 329 329 329 329 330 333 333 334 335 334 334 333 333 332 333 334 334 333 331 332 333 333 333 332 331 331 331 331 329 329 329 328 327 325 320 316 317 318
311 312 313 316 319 323 327 329 330 329 330 330 331 331 329 330 330 330 329 328 328 328 328 328 328 329 330 331 332 332 333 333 334 334 334 334 333 334 334 334 334 333 332 332 332 330 330 331 331 332 331 331 330 330 329 328 328 327 325 323 320 316 318
310 310 311 313 315 319 324 326 328 329 329 329 331 330 330 330 330 330 330 329 329 329 329 330 329 329 330 331 332 333 333 333 334 334 335 335 334 335 335 334 335 333 332 332 331 331 331 331 331 331 331 331 330 330 329 327 327 326 324 324 324 316 315
309 310 311 311 313 317 321 325 326 327 328 328 329 329 329 330 330 330 331 331 330 329 329 329 329 329 330 330 331 331 333 334 334 335 332 328 328 333 335 335 335 335 334 334 333 332 331 332 332 332 332 332 331 329 329 327 326 324 324 324 323 322 317
308 309 310 312 313 316 320 324 325 327 327 327 327 327 328 329 330 330 330 330 331 330 330 329 329 329 329 329 330 330 332 333 333 332 331 329 330 331 334 335 335 335 335 335 336 336 334 333 332 332 333 333 331 330 329 328 326 324 323 323 322 320 319
308 309 310 311 312 314 317 321 325 326 326 326 327 327 327 328 329 329 330 330 329 329 329 329 328 329 328 329 330 331 331 332 332 332 332 331 329 331 331 332 331 331 334 332 324 325 326 326 334 332 332 332 331 331 330 328 326 324 324 323 321 320 317
307 308 308 309 311 312 315 319 322 324 325 326 327 327 326 327 327 328 328 328 328 327 327 328 322 315 317 328 329 330 331 332 332 332 331 330 329 329 328 330 331 326 321 318 315 310 310 311 317 329 334 333 332 331 329 327 325 324 324 322 322 319 315
306 306 307 308 310 310 312 317 321 323 324 325 325 326 326 325 326 327 327 327 327 326 326 323 308 304 306 311 325 329 331 332 332 331 330 330 329 329 329 330 330 322 320 317 319 304 304 303 304 308 312 317 323 332 331 327 327 326 323 323 321 315 316
305 305 306 306 308 309 310 310 312 316 321 324 324 325 324 324 325 326 326 327 326 325 324 311 301 302 303 305 313 328 331 331 331 330 329 328 328 327 326 326 325 324 325 325 324 318 310 301 301 299 299 300 301 301 302 324 329 326 324 322 315 312 314
303 304 304 305 307 307 307 307 307 307 309 317 323 321 321 322 323 324 323 324 324 324 320 301 298 300 301 301 305 317 329 330 329 329 329 328 326 325 324 323 322 322 317 313 318 322 320 312 298 296 297 298 297 294 294 296 299 323 326 320 318 313 313
302 303 303 304 305 305 305 305 305 305 306 308 311 317 320 320 318 317 319 320 322 319 314 297 295 297 298 298 300 311 327 328 328 328 327 326 325 324 323 322 321 319 319 319 320 320 319 317 316 315 316 317 315 309 301 299 299 298 311 322 320 318 319
302 302 303 303 303 303 303 303 303 303 303 302 302 304 306 310 311 311 312 313 313 311 306 294 294 295 296 297 300 310 324 324 324 323 323 323 323 323 323 322 322 320 319 319 319 317 317 316 316 314 313 312 313 311 310 311 316 320 320 323 323 323 320
301 302 302 302 302 302 302 302 301 302 302 300 300 301 301 303 304 305 307 308 307 305 302 292 293 294 296 298 302 315 317 317 316 315 315 316 317 319 320 321 321 320 319 318 305 300 307 314 314 312 311 311 310 308 305 298 295 301 312 315 315 313 309
301 301 301 301 301 301 301 301 301 301 300 300 299 299 299 300 301 302 303 304 303 300 300 295 293 295 296 298 305 311 309 308 309 309 309 309 310 313 316 318 320 319 318 314 300 295 298 304 313 311 311 311 310 309 307 304 296 294 294 294 293 293 293
301 301 301 300 300 301 301 301 300 301 299 298 298 298 298 299 299 300 300 300 300 299 298 295 293 294 296 299 304 308 306 305 304 304 304 305 307 309 307 302 312 318 316 310 294 294 296 307 312 311 310 309 308 307 306 306 305 301 295 294 294 294 295
301 301 301 301 301 300 300 300 300 300 299 299 298 298 298 297 297 297 298 298 299 297 297 295 292 292 293 296 304 306 304 302 301 301 301 301 302 303 303 300 298 304 310 303 292 294 295 306 312 310 309 308 306 305 305 307 307 306 307 307 306 306 305
301 301 302 301 301 301 301 301 300 299 299 299 298 298 298 297 296 296 296 297 296 296 295 295 294 292 293 293 295 305 304 301 300 300 300 300 299 300 301 300 297 291 291 291 291 292 295 300 310 310 309 307 304 302 305 305 305 304 304 303 304 306 306
299 300 302 302 302 301 301 300 299 299 299 299 298 297 297 297 296 295 296 296 296 296 296 295 293 291 292 293 293 297 301 301 300 300 300 299 299 299 298 298 298 292 290 290 291 291 292 293 299 312 313 311 310 306 302 304 303 300 304 304 304 304 305
300 300 301 302 301 300 301 301 300 299 299 298 297 296 296 296 296 295 295 295 295 295 296 296 295 292 292 292 292 294 299 300 300 300 298 297 297 296 296 296 296 292 290 291 291 291 292 293 294 304 301 294 294 296 307 306 307 306 306 306 304 304 304
299 300 300 301 301 300 300 300 300 299 298 298 297 295 295 295 295 294 294 294 295 295 295 295 293 293 291 292 292 292 293 296 294 300 297 295 295 295 295 294 293 291 290 290 291 291 292 293 296 297 291 293 293 294 300 307 306 306 305 305 305 304 304
300 300 301 302 302 302 301 300 299 299 298 297 296 295 294 295 294 294 293 293 294 295 295 295 293 292 292 291 291 291 292 292 293 297 297 295 295 295 294 293 292 289 290 290 289 290 290 292 294 291 292 292 294 297 306 305 304 305 303 303 303 302 302
Wind_Speed
8 7 7 7 7 7 8 9 7 7 9 9 8 9 7 9 9 9 11 10 9 9 11 10 8 9 9 6 7 7 7 9 9 8 10 10 10 9 8 6 4 2 7 4 3 7 6 8 7 4 4 5 4 4 5 5 5 5 4 4 3 3 3
5 5 5 6 7 8 10 8 8 6 6 7 7 6 4 5 6 8 11 11 9 8 8 9 8 9 10 12 12 11 11 9 9 6 8 10 10 8 10 7 5 4 6 3 4 5 4 6 7 8 6 3 4 5 4 4 4 4 4 4 3 3 4
5 4 5 6 7 7 8 7 8 7 4 4 6 5 5 8 9 8 9 11 10 11 10 7 7 10 10 12 13 14 13 12 7 7 8 9 9 8 10 8 7 5 5 4 5 6 3 3 4 8 8 9 8 6 5 5 6 5 4 4 4 4 4
5 4 6 8 8 6 6 7 6 5 5 6 6 6 6 8 9 9 8 7 6 8 10 11 8 9 11 12 11 12 13 13 11 10 11 8 8 8 9 7 8 8 7 7 6 7 6 4 4 6 7 8 8 7 6 5 6 6 5 4 5 5 5
5 4 7 9 8 7 7 7 7 5 3 3 5 4 6 8 9 8 7 6 7 9 9 10 9 10 10 10 9 10 11 10 8 8 9 10 10 7 10 7 8 8 6 5 5 5 6 5 5 6 7 7 7 6 5 4 6 5 5 5 5 5 6
4 6 8 8 7 7 7 6 5 2 3 3 5 6 5 7 6 6 7 9 8 9 9 9 10 11 10 10 12 12 11 13 12 12 9 11 11 9 9 8 7 7 7 5 4 5 5 3 4 5 5 8 7 7 6 7 6 5 4 4 5 6 6
6 6 7 7 5 5 6 6 8 8 9 7 8 7 7 8 6 4 5 6 9 9 8 10 10 11 12 11 11 12 13 12 11 12 11 11 11 11 8 8 7 7 7 5 5 5 5 5 5 5 7 6 6 7 6 7 6 6 5 6 5 6 6
6 6 6 6 5 5 5 7 8 8 7 7 8 8 7 8 8 8 8 8 7 8 10 10 10 10 10 10 10 11 10 10 11 11 10 11 10 12 9 7 8 6 7 7 6 6 6 6 5 6 8 8 6 6 6 6 6 9 6 7 7 7 7
6 6 5 4 5 6 7 8 9 9 8 6 6 7 8 6 5 5 6 9 9 8 8 9 9 10 11 10 9 9 11 9 10 13 10 9 9 11 10 9 8 10 9 7 7 6 6 6 5 5 7 7 8 8 7 6 7 7 8 7 8 8 8
5 5 5 6 6 5 6 7 9 10 10 9 8 6 9 10 9 9 8 8 8 7 7 8 9 10 11 10 9 11 11 11 11 11 10 11 10 7 6 10 9 8 7 7 6 6 6 5 5 6 7 7 6 6 8 8 9 8 9 10 8 9 9
6 6 7 7 7 7 7 8 8 7 9 10 9 7 7 6 7 10 11 10 9 9 10 9 9 10 10 10 10 11 10 10 11 9 9 8 8 9 8 10 10 7 8 7 7 6 6 6 6 6 7 6 6 6 6 7 6 8 7 10 7 6 8
6 7 7 7 7 7 8 7 8 8 7 8 8 8 8 7 7 8 9 10 11 12 12 10 10 9 9 9 10 9 9 10 11 10 7 8 9 9 11 12 10 8 7 7 7 6 6 6 7 6 6 6 6 7 6 6 5 5 5 7 8 4 7
8 7 7 7 6 7 8 8 8 9 9 9 9 10 9 10 10 11 11 10 11 10 11 11 9 10 9 9 10 10 10 11 12 10 9 8 7 10 11 11 10 8 7 7 7 6 6 7 6 6 6 6 6 6 6 6 6 4 4 3 6 6 6
10 8 7 7 6 7 7 7 8 8 9 10 10 9 10 11 11 11 12 11 11 11 11 11 11 8 8 9 10 11 12 12 12 10 8 9 10 10 11 11 9 8 8 8 7 7 7 7 7 6 6 6 6 6 7 6 6 4 3 1 2 5 5
10 9 8 8 7 7 7 7 8 9 11 11 10 10 10 9 10 11 12 13 13 12 12 12 13 11 10 10 10 9 11 11 10 10 10 11 13 11 9 9 9 8 8 8 8 8 8 8 8 8 7 7 7 7 7 7 6 5 5 4 4 3 5
11 10 9 7 8 8 8 8 8 9 10 9 10 10 10 11 11 11 12 12 12 12 12 13 12 13 13 12 10 11 11 11 11 11 11 11 11 9 8 8 8 7 6 8 8 7 7 8 8 8 8 7 8 7 8 8 6 6 5 5 5 5 5
13 12 11 9 9 8 8 9 8 9 10 9 10 9 9 11 11 12 12 12 13 12 12 12 12 13 13 13 12 13 12 12 11 10 10 10 9 8 10 9 8 8 9 9 9 8 7 7 7 7 8 7 7 7 7 7 7 5 5 5 5 6 6
13 13 13 11 11 11 9 9 8 9 9 10 9 9 10 11 11 12 12 13 14 12 11 13 13 12 10 11 13 11 10 10 10 10 9 9 9 9 9 9 9 9 9 8 8 9 8 10 8 8 8 7 7 7 6 7 7 6 5 6 5 3 4
15 15 13 13 13 12 10 9 9 8 9 10 8 9 11 11 12 13 14 13 13 11 10 10 10 10 11 10 10 9 9 9 9 9 8 6 7 9 9 10 9 9 9 10 9 10 9 11 9 9 9 8 8 6 7 7 7 7 7 7 5 5 4
14 13 13 12 12 11 11 9 9 10 9 9 9 9 10 12 12 13 14 14 14 12 11 9 9 9 9 9 10 9 8 8 7 7 7 9 9 10 9 10 9 10 10 10 10 11 10 10 9 9 9 8 8 8 7 7 8 8 7 7 5 5 5
14 13 13 12 12 12 11 9 9 9 9 10 9 10 11 12 12 12 13 13 12 10 10 10 8 9 9 9 8 8 8 7 8 7 8 9 9 8 8 7 7 8 10 10 9 8 9 9 8 8 7 7 7 7 7 7 7 7 7 8 7 6 5
13 14 14 13 13 13 12 10 9 9 9 9 9 10 11 12 13 13 13 13 12 8 8 8 8 9 9 10 9 9 8 8 8 8 9 9 11 10 6 7 6 5 7 4 5 5 6 5 7 7 7 7 8 8 7 6 6 6 7 7 6 5 5
14 14 13 13 12 12 12 12 10 9 10 10 10 10 11 11 12 12 13 13 12 8 7 6 8 13 12 9 9 7 7 8 9 8 9 8 9 8 9 8 7 9 8 7 8 8 8 8 7 6 7 8 8 8 8 8 8 8 8 8 9 7 7
14 14 13 13 12 12 13 12 10 8 8 9 10 9 10 12 11 12 13 13 11 8 7 6 11 13 14 15 10 8 8 8 8 9 9 8 9 9 8 7 6 7 7 6 6 8 9 9 8 4 3 6 6 7 9 9 8 9 9 9 5 6 4
15 15 14 14 13 12 11 11 12 11 9 10 8 7 7 9 10 11 11 12 10 8 7 8 12 14 13 15 11 8 8 7 7 7 7 8 7 7 7 5 4 4 4 5 6 5 4 4 6 6 6 5 4 6 8 3 7 8 8 7 5 7 7
16 15 15 14 13 12 12 11 12 11 12 11 8 6 6 9 8 4 5 8 9 7 5 7 11 13 14 14 13 9 7 7 7 7 8 8 8 8 7 6 5 4 4 7 6 6 6 7 8 10 10 9 10 9 6 6 8 4 5 6 6 8 9
16 16 16 15 14 14 14 13 12 10 9 11 10 8 4 6 4 4 4 6 5 2 3 4 8 10 12 12 12 7 6 6 6 7 7 7 7 8 8 8 7 6 6 6 5 7 7 8 9 8 6 4 4 6 6 8 3 3 4 3 6 8 6
16 16 17 16 15 15 15 14 14 12 10 10 9 9 9 6 4 4 3 3 3 2 3 3 5 9 11 12 12 7 6 6 6 5 5 5 6 7 8 6 7 8 7 6 5 8 9 9 9 8 8 7 6 6 7 6 4 0 3 1 2 3 5
15 16 17 17 16 16 15 15 15 13 11 10 9 8 8 8 7 6 6 5 4 5 7 10 2 7 11 13 13 6 6 7 6 6 5 4 4 4 5 6 7 8 8 7 7 9 10 10 10 10 10 9 9 9 10 9 10 11 9 8 7 7 6
15 16 16 16 17 16 15 15 14 13 13 12 11 11 10 10 8 8 8 8 6 6 8 10 5 5 11 13 10 6 7 7 7 7 6 5 4 4 3 3 6 8 8 8 8 10 12 12 10 10 10 10 9 10 10 9 14 17 18 18 18 15 14
14 15 15 16 16 15 14 12 13 13 14 13 12 10 8 8 9 9 9 10 9 9 8 10 11 8 6 7 8 8 6 7 7 7 7 5 4 5 7 12 5 7 9 9 10 11 11 11 10 10 10 11 11 11 9 7 8 9 14 15 16 15 15
13 14 15 15 15 15 14 13 12 13 13 12 13 11 10 8 8 9 9 8 15 12 8 10 15 13 13 8 4 4 7 8 8 6 7 7 6 5 6 8 12 7 7 10 10 6 6 6 9 8 8 9 10 10 8 7 8 9 8 9 8 9 10
13 13 15 14 14 14 11 11 12 12 12 10 9 10 11 10 10 9 8 8 8 9 11 10 14 18 16 15 13 4 4 8 9 8 6 7 7 6 6 6 8 10 10 10 9 7 3 2 8 8 8 9 10 9 5 6 6 7 8 8 8 9 10
11 12 12 12 11 13 12 12 12 12 11 9 10 11 12 10 9 9 8 8 12 14 13 10 13 19 19 17 16 11 7 6 7 9 8 7 6 7 6 6 6 8 10 11 11 10 10 9 6 6 5 7 8 11 10 9 9 9 9 9 8 8 8
9 10 9 9 11 11 11 12 11 9 8 9 11 12 10 9 9 10 8 9 13 15 17 19 11 17 19 19 17 15 8 8 8 6 10 8 8 8 7 6 6 7 11 13 13 13 13 12 12 8 9 14 15 13 10 10 9 9 8 8 8 8 7
9 8 10 8 8 10 11 11 12 12 12 10 10 11 11 10 9 9 9 11 13 13 12 13 20 15 18 17 17 16 15 12 14 10 10 10 9 9 9 9 8 10 13 14 14 14 13 15 13 10 14 14 13 12 10 8 8 8 7 7 7 7 7
10 9 10 9 9 10 10 9 11 11 11 11 9 10 8 8 10 12 13 13 12 10 10 11 18 21 15 17 17 17 18 19 17 12 12 10 8 10 10 9 9 14 16 16 17 16 15 13 11 13 13 12 9 7 8 8 7 8 8 8 7 7 6
Wind_Direction
232 237 224 230 235 241 241 248 242 219 209 213 223 227 219 206 197 194 200 197 184 179 176 185 179 175 180 188 178 207 225 203 194 192 180 180 188 196 198 197 195 182 184 211 223 196 189 173 171 181 174 163 167 198 200 192 192 193 183 192 191 163 153
242 241 242 242 251 249 244 243 247 225 204 206 219 233 224 227 216 206 202 197 183 158 179 186 189 173 182 197 194 197 208 207 201 185 177 188 198 192 186 194 193 170 176 206 198 216 209 183 177 186 174 157 186 177 173 188 190 195 193 192 189 170 147
224 227 244 249 245 247 250 246 242 222 203 202 212 219 204 221 214 208 203 195 180 176 186 181 176 174 187 202 196 202 204 205 192 188 203 199 202 197 196 181 184 172 181 194 206 209 223 230 191 191 181 180 195 178 180 188 191 197 194 190 188 176 151
244 234 243 253 248 236 230 239 228 222 201 204 196 187 207 225 231 212 198 180 179 186 181 183 191 192 196 203 202 200 206 205 200 192 205 205 204 198 193 177 188 189 190 196 198 203 208 183 183 172 181 193 196 178 196 196 195 190 190 188 193 170 158
266 247 242 253 255 233 213 225 232 229 232 250 230 199 206 224 223 216 187 170 204 194 182 181 197 201 202 198 203 205 208 206 198 202 208 205 201 201 201 196 201 201 203 207 191 203 207 200 189 168 178 187 193 195 163 189 204 188 190 185 192 178 171
255 246 259 258 256 253 222 198 182 247 296 249 245 235 212 232 235 217 206 192 201 202 181 185 194 200 201 199 201 201 201 202 204 202 203 207 203 201 201 205 207 207 212 212 205 209 212 201 195 171 173 179 188 185 179 193 192 194 196 194 193 191 184
247 259 266 267 258 242 241 220 190 193 208 211 218 213 176 186 194 205 227 218 212 198 186 190 193 197 203 204 207 203 199 205 204 205 214 213 207 205 199 199 206 213 219 202 208 202 196 190 188 186 164 177 197 190 173 194 187 186 193 207 196 191 193
278 269 264 253 241 239 238 226 199 202 216 205 203 204 192 197 192 193 195 207 209 209 202 198 194 198 200 206 213 211 203 200 198 204 212 214 205 203 190 188 220 212 223 221 200 208 201 202 194 173 168 166 177 197 186 196 189 215 189 187 190 194 198
271 268 267 250 240 232 229 224 221 210 219 225 211 201 196 188 187 201 214 204 192 200 207 208 203 201 200 202 207 206 206 207 203 205 210 211 209 198 197 204 210 213 209 208 208 202 208 204 201 179 180 177 169 182 199 194 205 216 208 187 188 197 194
297 287 274 254 243 237 234 228 224 222 223 227 220 200 198 191 183 187 202 211 193 179 197 212 210 206 202 201 203 208 211 209 210 208 204 205 212 201 196 210 220 210 196 189 201 199 201 200 203 197 197 198 196 188 187 205 207 208 199 203 189 186 197
286 264 254 253 243 232 221 221 220 215 213 220 225 208 219 215 197 190 198 206 200 187 188 199 213 214 207 203 206 210 211 204 209 201 201 198 194 206 210 214 218 207 204 198 196 196 196 196 197 203 206 212 212 212 191 199 192 201 195 197 212 165 181
301 290 286 277 263 249 241 224 215 214 213 217 220 215 215 222 212 209 206 208 202 197 192 190 193 202 209 214 208 212 209 200 204 205 184 185 200 196 205 211 206 205 192 191 190 191 195 195 202 205 210 213 212 230 221 220 204 167 203 183 198 188 167
328 322 310 299 278 261 256 244 230 219 214 216 220 214 211 212 212 214 211 207 206 201 193 193 191 196 198 213 206 204 203 202 211 207 198 198 200 209 205 205 196 194 184 186 190 189 195 202 206 211 208 209 211 220 232 235 232 169 190 202 180 174 159
338 340 325 297 282 274 269 252 237 226 217 215 217 219 219 216 212 215 214 208 206 202 194 192 194 193 201 213 214 205 199 198 201 206 196 195 214 214 211 204 190 191 174 184 185 191 202 200 202 211 214 210 213 207 218 223 228 188 131 137 169 170 159
343 339 329 314 290 277 262 257 248 239 233 226 220 220 224 224 220 215 214 211 207 201 193 192 189 186 193 217 214 205 199 192 198 202 190 195 203 205 198 196 193 183 179 184 184 194 196 198 200 205 206 210 211 206 212 219 220 216 166 154 180 158 158
341 343 334 322 311 293 279 260 247 238 233 228 217 216 218 218 218 215 213 211 209 204 194 193 190 192 192 192 211 214 200 193 197 196 194 196 192 190 190 194 189 176 174 190 188 192 188 196 200 206 206 206 211 206 204 216 215 211 199 167 178 176 178
343 342 337 327 316 306 279 270 257 241 238 233 223 211 216 221 215 211 210 210 210 204 194 191 188 193 191 187 199 209 200 198 195 191 191 191 187 186 191 191 188 175 184 191 191 189 193 195 198 203 204 203 208 202 202 206 215 223 205 185 178 198 171
341 339 335 327 320 311 303 285 267 256 251 240 230 213 216 225 225 217 213 210 208 203 192 190 186 189 190 188 195 196 188 192 193 194 194 191 185 191 190 196 185 178 184 192 192 195 193 199 200 201 205 203 208 200 194 202 208 211 205 210 161 172 151
342 338 333 327 320 314 306 299 287 266 251 250 237 221 213 213 215 215 214 209 206 199 195 190 182 180 184 184 186 188 186 188 190 192 194 192 195 191 196 197 187 184 189 198 196 198 193 197 195 202 203 204 204 195 195 195 204 204 211 218 188 158 187
341 337 333 325 319 312 307 303 295 278 267 257 256 243 228 222 217 216 215 213 207 196 194 193 186 178 178 179 182 182 183 184 182 177 166 177 215 223 200 198 191 189 193 202 200 199 192 194 198 205 204 200 206 197 191 199 201 201 209 215 203 194 175
338 336 332 329 323 319 311 302 294 286 277 264 252 246 238 231 227 222 218 214 208 195 191 190 187 179 177 176 174 181 181 181 183 179 182 198 207 217 209 187 197 197 201 203 201 190 189 191 199 206 200 200 201 198 199 195 198 204 206 217 213 196 192
340 339 336 333 330 326 322 312 301 289 277 266 255 245 235 235 234 229 222 213 205 191 195 192 185 178 175 177 178 178 180 183 184 184 191 186 193 205 203 200 194 204 237 203 188 184 187 186 194 201 201 198 198 195 201 191 186 202 207 210 206 192 179
346 342 341 337 333 329 325 320 311 300 285 273 265 250 237 232 233 232 226 217 206 186 194 197 188 185 177 168 172 171 170 182 186 185 185 180 185 180 192 209 192 186 189 175 180 187 188 197 215 222 202 199 199 201 200 197 198 202 212 207 214 195 184
347 347 343 338 338 337 335 331 318 300 287 271 261 251 234 229 229 229 227 218 205 191 191 187 187 186 183 171 164 165 172 178 183 194 188 168 188 184 183 180 168 148 157 161 175 186 195 201 211 254 298 213 221 213 203 205 212 206 208 219 172 99 117
350 349 346 344 343 341 342 345 347 338 317 286 262 238 221 225 228 221 222 218 210 200 189 181 181 187 181 174 168 162 174 174 172 174 174 171 164 161 154 148 140 144 163 165 156 153 123 100 119 94 80 60 29 354 345 275 221 206 210 205 160 157 177
352 352 350 347 346 348 350 354 356 351 344 331 294 235 217 223 229 233 230 217 214 196 175 161 185 184 180 174 171 164 176 173 170 173 174 171 162 156 151 146 141 137 123 129 146 147 141 111 93 100 98 88 62 48 25 356 344 323 202 196 162 160 203
358 356 353 353 354 356 358 359 355 354 351 356 351 320 280 222 196 169 205 241 217 168 124 147 188 184 174 164 161 160 152 150 159 164 167 161 156 155 157 155 148 146 146 159 147 144 139 132 133 129 124 110 90 70 55 35 24 344 317 212 183 199 164
0 360 359 358 359 2 3 1 5 7 10 14 7 9 1 356 3 28 50 43 358 22 31 50 195 176 158 151 147 138 121 119 128 126 131 144 147 154 156 152 147 142 146 155 153 149 140 135 127 119 111 97 82 64 40 24 8 178 154 148 129 87 93
4 4 4 4 5 7 7 8 8 8 13 20 22 16 14 11 11 21 29 39 61 39 18 2 184 164 149 145 135 113 112 113 112 111 110 110 123 130 139 142 140 136 141 138 130 141 134 133 126 121 111 104 97 78 63 44 43 54 67 73 75 74 64
11 10 10 10 11 11 12 14 16 16 20 26 29 31 31 31 27 40 42 42 49 53 45 16 16 139 139 138 126 105 106 102 103 106 98 96 97 99 110 137 136 134 134 132 140 138 136 132 123 119 115 109 102 94 87 71 61 72 81 86 90 90 86
17 16 17 18 16 17 19 21 24 25 29 30 31 23 22 30 23 20 41 54 52 58 50 24 38 34 69 116 134 119 113 108 105 105 103 83 85 82 56 31 50 131 130 134 146 142 143 128 121 122 120 115 108 104 102 103 96 83 86 88 88 88 84
20 21 25 25 22 21 21 24 26 33 34 33 34 34 31 27 27 23 13 48 60 60 44 33 35 43 37 44 81 88 113 119 113 113 112 96 74 80 68 45 29 36 103 127 140 144 172 145 124 132 128 111 109 113 125 131 117 114 110 99 88 85 78
19 22 28 31 31 29 22 20 23 31 33 32 32 28 36 38 37 24 5 18 50 55 54 40 34 42 46 40 17 17 124 123 121 120 111 111 104 79 77 73 54 48 84 101 99 88 73 87 126 131 129 120 123 123 133 103 90 99 91 89 88 83 85
16 22 25 30 30 32 28 25 26 31 31 28 37 36 32 26 36 34 15 18 54 55 50 49 39 45 47 43 37 30 14 49 108 115 112 98 92 91 76 67 75 58 81 85 86 82 74 56 61 119 122 136 124 126 125 112 104 101 100 102 102 100 97
18 24 11 18 33 32 31 33 29 24 25 27 41 43 32 22 31 41 18 23 44 53 46 45 54 45 52 55 48 42 53 26 16 92 89 79 70 64 62 61 69 71 84 85 86 86 81 79 70 73 73 90 104 122 123 119 124 123 117 112 106 101 97
16 20 25 14 27 32 33 32 31 30 31 34 32 39 34 27 25 37 37 32 35 43 43 40 47 50 47 58 63 61 57 59 46 50 73 72 64 67 67 69 67 66 72 76 79 81 88 91 85 93 100 98 102 109 118 115 117 116 109 102 98 94 89
16 13 12 9 17 28 28 29 33 31 32 32 33 38 34 30 32 33 35 35 30 29 37 43 43 46 47 52 62 67 71 70 71 69 68 68 65 69 66 60 61 60 67 70 70 68 64 67 83 89 93 100 103 104 109 113 109 106 108 107 100 91 83